Powrót do katalogu

DELTA 4H R/B

AktywnyMEO
NORAD 33491·ROCKET BODY·🇺🇸 United States

Wystrzelony Jan 18, 2009 z Cape Canaveral Space Force Station

Loading…

Następne Przeloty (najbliższe 24 godziny)

TLE

ŚwieżeSource: Space-Track

Epoka: Sep 14, 2026, 12:23 UTC

1 33491U 09001B   26257.51665071 -.00000168  00000-0  00000+0 0  9998
2 33491   9.8308  34.8166 0262135  67.2984 295.4986  0.96058946 25011

Śledź DELTA 4H R/B w czasie rzeczywistym z AllMySat

Download on the App Store